| time (UTC) | temp F | wind direction | speed MPH | gust MPH | rain 1hr in | rain 24hr in | rain mn in | humidity % | barometer mb |
| 20260503002108 | 70 | 203 | 0.0 | 0.0 | 0.00 | 0.00 | 0.30 | 5 | |
| 20260503001107 | 70 | 203 | 0.0 | 0.0 | 0.00 | 0.00 | 0.30 | 5 | |
| 20260503000107 | 71 | 203 | 0.0 | 0.0 | 0.00 | 0.00 | 0.30 | 4 | |
| 20260502235106 | 71 | 180 | 0.0 | 0.0 | 0.00 | 0.00 | 0.30 | 4 | |
| 20260502234107 | 72 | 203 | 0.0 | 0.0 | 0.00 | 0.00 | 0.30 | 4 | |
| 20260502233106 | 72 | 248 | 0.0 | 0.0 | 0.00 | 0.00 | 0.30 | 4 | |
| 20260502232107 | 72 | 90 | 0.0 | 0.0 | 0.00 | 0.00 | 0.30 | 4 | |
| 20260502231106 | 73 | 225 | 0.0 | 0.0 | 0.00 | 0.00 | 0.30 | 4 | |
| 20260502230108 | 73 | 113 | 1.0 | 0.0 | 0.00 | 0.00 | 0.30 | 4 | |
| 20260502225107 | 73 | 180 | 0.0 | 0.0 | 0.00 | 0.00 | 0.30 | 4 | |
| 20260502224107 | 74 | 113 | 2.0 | 0.0 | 0.00 | 0.00 | 0.30 | 4 | |
| 20260502223107 | 74 | 225 | 2.0 | 0.0 | 0.00 | 0.00 | 0.30 | 4 | |
| 20260502222107 | 75 | 135 | 2.0 | 0.0 | 0.00 | 0.00 | 0.30 | 4 | |
| 20260502221106 | 75 | 180 | 0.0 | 0.0 | 0.00 | 0.00 | 0.30 | 4 | |
| 20260502220106 | 75 | 203 | 0.0 | 0.0 | 0.00 | 0.00 | 0.30 | 4 | |
| 20260502215107 | 76 | 203 | 0.0 | 0.0 | 0.00 | 0.00 | 0.30 | 4 | |
| 20260502214107 | 77 | 203 | 0.0 | 0.0 | 0.00 | 0.00 | 0.30 | 4 | |
| 20260502213106 | 75 | 203 | 1.0 | 0.0 | 0.00 | 0.00 | 0.30 | 4 | |
| 20260502212107 | 74 | 113 | 1.0 | 0.0 | 0.00 | 0.00 | 0.30 | 4 | |
| 20260502211106 | 76 | 225 | 1.0 | 0.0 | 0.00 | 0.00 | 0.30 | 4 | |
| 20260502210107 | 75 | 158 | 1.0 | 0.0 | 0.00 | 0.00 | 0.30 | 4 | |
| 20260502205107 | 76 | 45 | 2.0 | 0.0 | 0.00 | 0.00 | 0.30 | 4 | |
| 20260502204107 | 76 | 203 | 1.0 | 0.0 | 0.00 | 0.00 | 0.30 | 4 | |
| 20260502203107 | 76 | 225 | 1.0 | 0.0 | 0.00 | 0.00 | 0.30 | 4 | |
| 20260502202106 | 75 | 45 | 1.0 | 0.0 | 0.00 | 0.00 | 0.30 | 4 | |
| 20260502201107 | 76 | 248 | 1.0 | 0.0 | 0.00 | 0.00 | 0.30 | 4 | |
| 20260502200106 | 75 | 270 | 3.0 | 0.0 | 0.00 | 0.00 | 0.30 | 4 | |
| 20260502195107 | 76 | 180 | 1.0 | 0.0 | 0.00 | 0.00 | 0.30 | 4 | |
| 20260502194107 | 74 | 203 | 0.0 | 0.0 | 0.00 | 0.00 | 0.30 | 4 | |
| 20260502193106 | 75 | 180 | 3.0 | 0.0 | 0.00 | 0.00 | 0.30 | 4 | |
| 20260502192107 | 75 | 90 | 2.0 | 0.0 | 0.00 | 0.00 | 0.30 | 4 | |
| 20260502191106 | 74 | 203 | 1.0 | 0.0 | 0.00 | 0.00 | 0.30 | 4 | |
| 20260502190107 | 74 | 225 | 1.0 | 0.0 | 0.00 | 0.00 | 0.30 | 4 | |
| 20260502185107 | 74 | 225 | 1.0 | 0.0 | 0.00 | 0.00 | 0.30 | 5 | |
| 20260502184107 | 73 | 203 | 2.0 | 0.0 | 0.00 | 0.00 | 0.30 | 4 | |
| 20260502183106 | 73 | 180 | 0.0 | 0.0 | 0.00 | 0.00 | 0.30 | 5 | |
| 20260502182107 | 72 | 203 | 0.0 | 0.0 | 0.00 | 0.00 | 0.30 | 5 | |
| 20260502181107 | 72 | 203 | 2.0 | 0.0 | 0.00 | 0.00 | 0.30 | 5 | |
| 20260502180107 | 71 | 158 | 2.0 | 0.0 | 0.00 | 0.00 | 0.30 | 5 | |
| 20260502170107 | 67 | 90 | 2.0 | 0.0 | 0.00 | 0.00 | 0.30 | 6 | |
| 20260502164107 | 66 | 180 | 2.0 | 0.0 | 0.00 | 0.00 | 0.30 | 6 | |
| 20260502163107 | 65 | 225 | 2.0 | 0.0 | 0.00 | 0.00 | 0.30 | 6 | |
| 20260502162107 | 65 | 23 | 1.0 | 0.0 | 0.00 | 0.00 | 0.30 | 6 | |
| 20260502161107 | 64 | 158 | 0.0 | 0.0 | 0.00 | 0.00 | 0.30 | 7 | |
| 20260502160107 | 63 | 90 | 1.0 | 0.0 | 0.00 | 0.00 | 0.30 | 7 | |
| 20260502152107 | 60 | 90 | 1.0 | 0.0 | 0.00 | 0.00 | 0.30 | 8 | |
| 20260502151106 | 59 | 113 | 0.0 | 0.0 | 0.00 | 0.00 | 0.30 | 8 | |
| 20260502150107 | 58 | 113 | 1.0 | 0.0 | 0.00 | 0.00 | 0.30 | 8 | |
| 20260502140106 | 53 | 135 | 2.0 | 0.0 | 0.00 | 0.00 | 0.30 | 9 | |
| 20260502130107 | 49 | 158 | 0.0 | 0.0 | 0.00 | 0.00 | 0.30 | 9 | |
| 20260502123107 | 47 | 158 | 0.0 | 0.0 | 0.00 | 0.00 | 0.30 | 9 | |
| 20260502122107 | 47 | 113 | 0.0 | 0.0 | 0.00 | 0.00 | 0.30 | 9 | |
| 20260502121107 | 47 | 113 | 0.0 | 0.0 | 0.00 | 0.00 | 0.30 | 9 | |
| 20260502120107 | 47 | 158 | 0.0 | 0.0 | 0.00 | 0.00 | 0.30 | 9 | |
| 20260502115106 | 47 | 113 | 0.0 | 0.0 | 0.00 | 0.00 | 0.30 | 9 | |
| 20260502114106 | 47 | 158 | 0.0 | 0.0 | 0.00 | 0.00 | 0.30 | 9 | |
| 20260502113107 | 47 | 135 | 0.0 | 0.0 | 0.00 | 0.00 | 0.30 | 9 | |
| 20260502112106 | 47 | 113 | 0.0 | 0.0 | 0.00 | 0.00 | 0.30 | 9 | |
| 20260502111107 | 47 | 113 | 0.0 | 0.0 | 0.00 | 0.00 | 0.30 | 9 | |
| 20260502110107 | 47 | 113 | 0.0 | 0.0 | 0.00 | 0.00 | 0.30 | 9 | |
| 20260502105107 | 48 | 113 | 0.0 | 0.0 | 0.00 | 0.00 | 0.30 | 9 | |
| 20260502104106 | 48 | 113 | 0.0 | 0.0 | 0.00 | 0.00 | 0.30 | 9 | |
| 20260502103106 | 48 | 203 | 0.0 | 0.0 | 0.00 | 0.00 | 0.30 | 9 | |
| 20260502102106 | 48 | 203 | 0.0 | 0.0 | 0.00 | 0.00 | 0.30 | 9 | |
| 20260502101106 | 48 | 180 | 0.0 | 0.0 | 0.00 | 0.00 | 0.30 | 9 | |
| 20260502100106 | 48 | 158 | 0.0 | 0.0 | 0.00 | 0.00 | 0.30 | 9 | |
| 20260502091106 | 48 | 203 | 0.0 | 0.0 | 0.00 | 0.00 | 0.30 | 9 | |
| 20260502090106 | 48 | 180 | 0.0 | 0.0 | 0.00 | 0.00 | 0.30 | 9 | |
| 20260502080106 | 49 | 158 | 0.0 | 0.0 | 0.00 | 0.00 | 0.30 | 9 | |
| 20260502071108 | 49 | 180 | 0.0 | 0.0 | 0.00 | 0.00 | 0.30 | 9 | |
| 20260502070108 | 50 | 180 | 0.0 | 0.0 | 0.00 | 0.00 | 0.30 | 9 | |
| 20260502065106 | 50 | 180 | 0.0 | 0.0 | 0.00 | 0.00 | 0.30 | 9 | |
| 20260502064108 | 50 | 180 | 0.0 | 0.0 | 0.00 | 0.00 | 0.30 | 9 | |
| 20260502063107 | 50 | 135 | 0.0 | 0.0 | 0.00 | 0.00 | 0.30 | 9 | |
| 20260502062106 | 50 | 90 | 1.0 | 0.0 | 0.00 | 0.00 | 0.30 | 9 | |
| 20260502061107 | 50 | 158 | 0.0 | 0.0 | 0.00 | 0.00 | 0.30 | 9 | |
| 20260502060107 | 51 | 180 | 0.0 | 0.0 | 0.00 | 0.00 | 0.30 | 9 | |
| 20260502055107 | 51 | 180 | 0.0 | 0.0 | 0.00 | 0.00 | 0.30 | 9 | |
| 20260502054107 | 51 | 158 | 0.0 | 0.0 | 0.00 | 0.00 | 0.30 | 9 | |
| 20260502053106 | 51 | 180 | 0.0 | 0.0 | 0.00 | 0.00 | 0.30 | 9 | |
| 20260502052107 | 51 | 180 | 0.0 | 0.0 | 0.00 | 0.00 | 0.30 | 9 | |
| 20260502051106 | 52 | 180 | 0.0 | 0.0 | 0.00 | 0.00 | 0.30 | 9 | |
| 20260502050107 | 52 | 180 | 0.0 | 0.0 | 0.00 | 0.00 | 0.30 | 9 | |
| 20260502045107 | 52 | 203 | 0.0 | 0.0 | 0.00 | 0.00 | 0.30 | 9 | |
| 20260502044107 | 52 | 180 | 0.0 | 0.0 | 0.00 | 0.00 | 0.30 | 9 | |
| 20260502043106 | 53 | 180 | 0.0 | 0.0 | 0.00 | 0.00 | 0.30 | 9 | |
| 20260502042107 | 53 | 158 | 0.0 | 0.0 | 0.00 | 0.00 | 0.30 | 9 | |
| 20260502041107 | 53 | 203 | 0.0 | 0.0 | 0.00 | 0.00 | 0.30 | 9 | |
| 20260502040107 | 53 | 158 | 0.0 | 0.0 | 0.00 | 0.00 | 0.30 | 9 | |
| 20260502035107 | 53 | 180 | 0.0 | 0.0 | 0.00 | 0.00 | 0.30 | 9 | |
| 20260502034107 | 53 | 180 | 0.0 | 0.0 | 0.00 | 0.00 | 0.30 | 9 | |
| 20260502033107 | 53 | 135 | 1.0 | 0.0 | 0.00 | 0.00 | 0.30 | 9 | |
| 20260502032107 | 53 | 180 | 0.0 | 0.0 | 0.00 | 0.00 | 0.30 | 9 | |
| 20260502031106 | 53 | 180 | 0.0 | 0.0 | 0.00 | 0.00 | 0.30 | 9 | |
| 20260502030107 | 53 | 203 | 0.0 | 0.0 | 0.00 | 0.00 | 0.30 | 9 | |
| 20260502025107 | 53 | 135 | 0.0 | 0.0 | 0.00 | 0.00 | 0.30 | 9 | |
| 20260502024107 | 53 | 158 | 0.0 | 0.0 | 0.00 | 0.00 | 0.30 | 9 | |
| 20260502023107 | 53 | 203 | 0.0 | 0.0 | 0.00 | 0.00 | 0.30 | 9 | |
| 20260502022107 | 53 | 203 | 0.0 | 0.0 | 0.00 | 0.00 | 0.30 | 9 | |
| 20260502021106 | 53 | 203 | 0.0 | 0.0 | 0.00 | 0.00 | 0.30 | 9 | |
| 20260502020108 | 53 | 203 | 1.0 | 0.0 | 0.00 | 0.00 | 0.30 | 9 | |
| 20260502015107 | 53 | 203 | 0.0 | 0.0 | 0.00 | 0.00 | 0.30 | 9 | |
| 20260502014107 | 53 | 203 | 0.0 | 0.0 | 0.00 | 0.00 | 0.30 | 9 | |
| 20260502013108 | 53 | 158 | 0.0 | 0.0 | 0.00 | 0.00 | 0.30 | 9 | |
| 20260502012108 | 53 | 203 | 0.0 | 0.0 | 0.00 | 0.00 | 0.30 | 9 | |
| 20260502011107 | 53 | 203 | 0.0 | 0.0 | 0.00 | 0.00 | 0.30 | 9 | |
| 20260502010107 | 53 | 203 | 2.0 | 0.0 | 0.00 | 0.00 | 0.30 | 9 | |
| 20260502005106 | 53 | 180 | 1.0 | 0.0 | 0.00 | 0.00 | 0.30 | 9 | |
| 20260502004108 | 53 | 203 | 0.0 | 0.0 | 0.00 | 0.00 | 0.30 | 9 | |
| 20260502003107 | 53 | 203 | 1.0 | 0.0 | 0.00 | 0.00 | 0.30 | 9 |